www.pogodaiklimat.ru

Погода и климат >> Архив погоды >> Австралия >> Северная территория >> Манбуллу Ксиро


ПОГОДА в Манбуллу Ксиро

  • Прогноз погоды в Манбуллу Ксиро
  • Монитор погоды в Манбуллу Ксиро

АРХИВ ПОГОДЫ в Манбуллу Ксиро

Время (UTC), дата Ветер
(напр.,м/с)
 
Видим.   Явления Облачность Т
(С)
Тd
(С)
f
(%)
Тe
(С)
Тes
(С)
Комфортность P
(гПа)
Po
(гПа)
Тmin
(С)
Tmax
(С)
R
(мм)
R24
(мм)
S
(см)
23 11.09 ЮЗ 2 н/о н/о +23.2 +3.7 28 +23 +23 комфорт 1021.4 1012.7
02 12.09 В 7 н/о н/о +30.5 +1.0 15 +28 +28 жарко 1019.5 1010.8 +14.0
05 12.09 В 5 н/о н/о +33.4 -2.3 10 +30 +30 жарко 1015.6 1006.9
08 12.09 ЮВ 4 н/о н/о +32.9 -4.1 9 +29 +29 жарко 1014.7 1006.0
14 12.09 В 1 н/о н/о +21.4 -3.1 19 +21 +21 комфорт 1017.2 1008.5 +34.4
17 12.09 СВ 3 н/о н/о +22.0 -4.1 17 +21 +21 комфорт 1017.0 1008.3
20 12.09 В 2 н/о н/о +19.4 -0.6 26 +20 +20 1018.0 1009.3
23 12.09 СВ 5 н/о н/о +26.9 +8.4 31 +27 +27 жарко 1020.3 1011.6
02 13.09 В 7 н/о н/о +31.7 +2.8 16 +29 +29 жарко 1018.4 1009.7 +17.7
05 13.09 ЮВ 7 н/о н/о +33.9 +2.7 14 +31 +31 жарко 1015.0 1006.3
08 13.09 В 5 н/о н/о +33.3 -1.1 11 +30 +30 жарко 1014.3 1005.7
11 13.09 В 3 н/о н/о +27.1 -0.9 16 +25 +25 комфорт 1016.2 1007.5
14 13.09 В 2 н/о н/о +23.1 -1.1 20 +22 +22 комфорт 1016.5 1007.8 +35.4
17 13.09 В 4 н/о н/о +25.1 +1.3 21 +24 +24 комфорт 1016.6 1007.9
20 13.09 штиль 0 н/о н/о +21.6 +2.8 29 +22 +22 комфорт 1017.8 1009.1
23 13.09 В 5 н/о н/о +27.3 +5.6 25 +26 +26 жарко 1019.9 1011.2
02 14.09 В 6 н/о н/о +32.0 +4.7 18 +30 +30 жарко 1017.6 1008.9 +20.5
05 14.09 ЮВ 6 н/о н/о +35.3 -0.9 10 +32 +32 жарко 1013.5 1004.9
08 14.09 ЮВ 4 н/о н/о +34.4 -3.0 9 +30 +30 жарко 1013.2 1004.6
11 14.09 В 3 н/о н/о +28.4 -0.7 15 +26 +26 жарко 1015.2 1006.5
14 14.09 С 3 н/о н/о +22.9 -0.6 21 +22 +22 комфорт 1015.6 1006.9 +36.5
17 14.09 СВ 3 н/о н/о +25.6 +4.1 25 +25 +25 комфорт 1015.3 1006.6
20 14.09 В 4 н/о н/о +23.5 +4.5 29 +23 +23 комфорт 1016.7 1008.0
23 14.09 СВ 5 н/о н/о +28.7 +2.8 19 +27 +27 жарко 1018.5 1009.8
02 15.09 В 7 н/о н/о +33.5 +2.4 14 +30 +30 жарко 1016.0 1007.3 +21.1
05 15.09 В 6 н/о н/о +35.4 -2.3 9 +31 +31 жарко 1012.7 1004.1
08 15.09 ЮВ 5 н/о н/о +35.0 -2.6 9 +31 +31 жарко 1012.2 1003.6
11 15.09 В 3 н/о н/о +27.7 -1.3 15 +25 +25 комфорт 1013.9 1005.3
14 15.09 СВ 4 н/о н/о +28.1 +1.6 18 +26 +26 жарко 1014.3 1005.7 +36.8
17 15.09 СЗ 3 н/о н/о +23.3 +13.5 54 +27 +27 душно 1015.2 1006.5
20 15.09 В 3 н/о н/о +21.3 +17.3 78 +25 +25 комфорт 1016.0 1007.3
23 15.09 штиль 0 н/о н/о +25.7 +18.1 63 +30 +30 душно 1017.7 1009.0
02 16.09 В 5 н/о н/о +32.3 +6.5 20 +30 +30 жарко 1015.8 1007.1 +20.7
05 16.09 В 5 н/о н/о +35.5 -0.8 10 +32 +32 жарко 1012.4 1003.8
08 16.09 В 4 н/о н/о +34.6 -0.1 11 +31 +31 жарко 1011.4 1002.8
11 16.09 В 3 н/о н/о +29.1 +2.4 18 +27 +27 жарко 1013.8 1005.2
14 16.09 СВ 3 н/о н/о +27.8 +6.6 26 +27 +27 жарко 1014.2 1005.6 +36.3
17 16.09 С 3 н/о н/о +26.0 +8.0 32 +26 +26 жарко 1013.8 1005.2
20 16.09 В 1 н/о н/о +22.1 +15.0 64 +26 +26 душно 1015.8 1007.1
23 16.09 С 3 н/о н/о +26.6 +17.7 58 +31 +31 душно 1018.1 1009.4
02 17.09 СВ 3 н/о н/о +33.1 +12.1 28 +33 +33 жарко 1016.4 1007.7 +21.8
05 17.09 В 6 н/о н/о +35.4 +1.7 12 +32 +32 жарко 1012.7 1004.1
08 17.09 ЮВ 4 н/о н/о +35.6 -5.5 7 +31 +31 жарко 1012.2 1003.6
11 17.09 В 2 н/о н/о +26.9 -4.9 12 +24 +24 комфорт 1014.6 1005.9
14 17.09 СВ 3 н/о н/о +23.7 -2.0 18 +22 +22 комфорт 1015.3 1006.6 +37.0
17 17.09 СВ 3 н/о н/о +23.0 +6.7 35 +24 +24 комфорт 1015.7 1007.0
20 17.09 В 3 н/о н/о +21.9 +15.3 66 +25 +25 комфорт 1017.3 1008.6
23 17.09 СЗ 3 н/о н/о +28.0 +16.9 51 +32 +32 душно 1018.2 1009.5
02 18.09 В 5 н/о н/о +34.3 +7.4 19 +32 +32 жарко 1016.5 1007.8 +21.4
05 18.09 В 6 н/о н/о +36.7 +3.8 13 +34 +34 очень
жарко
1012.9 1004.3
11 18.09 В 3 н/о н/о +29.4 -1.9 13 +26 +26 жарко 1014.1 1005.5
14 18.09 В 4 н/о н/о +30.4 +0.9 15 +28 +28 жарко 1014.6 1005.9 +37.6

 

Местоположение метеостанции Манбуллу Ксиро (Северная территория, Австралия): широта -14.95 долгота 130.80 высота над уровнем моря 76 м.

В архиве по умолчанию представлена погода в Манбуллу Ксиро за последнюю неделю. Архивные данные за месяц целиком и за предыдущие месяцы, начиная с января 2011 года, Вы можете получить, выбрав интересующий диапазон дат из раскрывающегося списка и нажав кнопку "Ввод!".


*Определитесь, кто Вы:
робот инопланетянин человек

Внимание! Время в таблицах - всемирное. Для получения местного времени необходимо прибавить поправку, которая равна 9.5 ч.

Смотрите также архив погоды в соседних городах и на ближайших метеорологических станциях:

Погода на Маяке Кейп-Дон (Северная территория, Австралия) (131 км)
Погода на Базе ВВС Delamere Weapons Range (Северная территория, Австралия) (149 км)
Погода в Порт Китс (Северная территория, Австралия) (157 км)
Погода в Виктория-Ривер (Северная территория, Австралия) (163 км)
Погода в Тиндале (Северная территория, Австралия) (175 км)
Погода в Батчелоре (Северная территория, Австралия) (213 км)
Погода в Кунунарре (Западная Австралия, Австралия) (242 км)
Погода на Острове Дам-ин-Мирре (Северная территория, Австралия) (262 км)
Погода в Милд Пойнт (Северная территория, Австралия) (267 км)
Погода в Дарвине (Северная территория, Австралия) (283 км)

Пояснения к столбцам:

Ветер - указаны скорость ветра в м/с - средняя за 10 мин, порывы в срок и между сроками (в фигурных скобках) и направление, откуда дует ветер: С - северный, СВ - северо-восточный, В - восточный, ЮВ - юго-восточный, Ю - южный, ЮЗ - юго-западный, З - западный, СЗ - северо-западный.
Видимость - горизонтальная дальность видимости в метрах или километрах. При видимости от 1 до 10 км при отсутствии осадков обычно наблюдается дымка, при ухудшении видимости до 1 км и менее - туман. В сухую погоду видимость может ухудшаться дымом, пылью или мглою.
Явления - указаны атмосферные явления, наблюдавшиеся в срок или в последний час перед сроком; фигурными скобками обозначены явления, наблюдавшиеся между сроками (за 1-3 часа до срока); квадратными скобками обозначены град или гололедные отложения с указанием их диаметра в мм.
Облачность - указаны через наклонную черту общая и нижняя облачность в баллах и высота нижней границы облаков в метрах; квадратными скобками обозначены формы облаков: Ci - перистые, Cs - перисто-слоистые, Cc - перисто-кучевые, Ac - высококучевые, As - высокослоистые, Sc - слоисто-кучевые, Ns - слоисто-дождевые, Cu - кучевые, Cb - кучево-дождевые. Подробнее классификацию облаков см. в Атласе облаков (PDF).
T - Температура воздуха - температура, измеренная на высоте 2 м над землей.
Td - Температура точки росы - температура, при понижении до которой содержащийся в воздухе водяной пар достигнет насыщения.
f - Относительная влажность воздуха - влажноcть воздуха, измеренная на высоте 2 м над землей.
Te - Эффективная температура - температура, которую ощущает одетый по сезону человек в тени. Характеристика душности погоды. При расчете учитывается влияние влажности воздуха и скорости ветра на теплоощущения человека.
Tes - Эффективная температура на солнце - температура, которую ощущает человек, с поправкой на солнечный нагрев. Характеристика знойности погоды. Зависит от высоты солнца над горизонтом, облачности и скорости ветра. Ночью, в пасмурную погоду, а также при ветре 12 м/с и более поправка равна нулю.
P - Атмосферное давление - приведенное к уровню моря атмосферное давление.
Po - Атмосферное давление - измеренное на уровне метеостанции атмосферное давление.
Tmin - Минимальная температура - минимум температуры воздуха на высоте 2 м над землей.
Tmax - Максимальная температура - максимум температуры воздуха на высоте 2 м над землей.
R - Количество осадков - Количество выпавших осадков за период времени, мм. При наведении курсора мыши на число - период времени, за который выпало указанное количество осадков.
R24 - Количество осадков - Количество выпавших осадков за 24 часа, мм.
S - Снежный покров - Высота снежного покрова, см. При наведении курсора мыши на число - состояние снежного покрова и степень покрытия местности в баллах.